User: anonymous   Login
Location: Waning Moon II Observatory
(30.3730°N, 89.7620°W)
Time: 22:35:35
(UTC-05:00)
Language:

Cosmos 1825 Rocket - Orbit

View from above orbital plane
View from above orbital plane
View from above satellite
View from above satellite

Ground track
Ground track

The orbit data is extracted from the following two-line orbital elements,

1 17567U 87024B   16244.17969005  .00000124  00000-0  12179-4 0  9992
2 17567  82.5281 110.4544 0018207 219.4578 140.5313 14.83604718593463
Epoch (UTC): 31 August 2016 04:18:45
Eccentricity: 0.0018207
inclination: 82.5281°
perigee height: 605 km
apogee height: 631 km
right ascension of ascending node: 110.4544°
argument of perigee: 219.4578°
revolutions per day: 14.83604718
mean anomaly at epoch: 140.5313°
orbit number at epoch: 59346

The dashed part of the orbit path shows where the satellite is in the earth's shadow,  

DLR